Location: Buckland
(65.9785°N, 161.1281°W)
Time: 07:07:33
(UTC+00:00)

Transit 2A Rocket - Pass Details

Date: 28 November 2020
Orbit: 592 x 910 km, 66.7° (Epoch: 21 January)

Event Time Altitude Azimuth Distance (km) Brightness Sun altitude
Exits shadow 14:20:33 42° 102° (ESE) 1,127 6.1 -32.7°
Drops below altitude 10° 14:24:27 10° 66° (ENE) 2,298 8.3 -32.4°
Sets 14:26:48 0° 61° (ENE) 3,173 9.3 -32.1°
